Regional Weather Roundup
Issued by NWS

Home | Current Version | Previous Version | Text Only | Print | Product List | Glossary On
Versions: 1 2 3 4 5 6 7 8 9 10 11 12 13 14 15 16 17 18 19 20 21 22 23 24 25 26 27 28 29 30 31 32 33 34 35 36 37 38 39 40 41 42 43 44 45 46 47 48 49 50
000
ASUS43 KMKX 142000
RWRWI

WISCONSIN REGIONAL WEATHER ROUNDUP
NATIONAL WEATHER SERVICE MILWAUKEE/SULLIVAN WI
300 PM CDT SUN SEP 14 2014

NOTE: "FAIR" INDICATES FEW OR NO CLOUDS BELOW 12,000 FEET WITH NO
SIGNIFICANT WEATHER AND/OR OBSTRUCTIONS TO VISIBILITY.

WIZ001-002-006>008-014>016-023>028-142100-
NORTHWEST WISCONSIN

CITY           SKY/WX    TMP DP  RH WIND       PRES   REMARKS
SUPERIOR ARPT  PTSUNNY   60  43  53 W14       30.05S
ASHLAND        PTSUNNY   61  43  51 W12G22    30.03S
HAYWARD        CLOUDY    59  39  47 VRB7G16   30.06S
SIREN          PTSUNNY   62  40  44 W20G26    30.07F
RICE LAKE      MOSUNNY   63  35  35 SW17G25   30.09S
LADYSMITH      MOSUNNY   61  41  47 W13G20    30.08S
EAU CLAIRE     NOT AVBL
MENOMONIE      MOCLDY    66  40  38 SW15G22   30.09F
NEW RICHMOND   SUNNY     64  37  37 W17G23    30.10F
OSCEOLA        MOSUNNY   63  41  44 W15G21    30.13S
$$

WIZ003>005-009-010-017-018-142100-
NORTH CENTRAL WISCONSIN

CITY           SKY/WX    TMP DP  RH WIND       PRES   REMARKS
WOODRUFF       MOSUNNY   59  43  54 W8G18     30.04S
RHINELANDER    PTSUNNY   58  43  57 W16       30.06F
EAGLE RIVER    MOSUNNY   61  40  46 W17G24    30.04S
LAND O LAKES   PTSUNNY   58  42  55 W12G18    30.04S
PHILLIPS       PTSUNNY   59  43  55 SW9G20    30.05S
TOMAHAWK       MOSUNNY   61  46  57 SW7       30.07S
MEDFORD        PTSUNNY   61  48  61 SW12G17   30.08F
MERRILL        CLOUDY    60  48  64 W15G22    30.07S
$$

WIZ029-030-035-036-043>047-142100-
CENTRAL WISCONSIN

CITY           SKY/WX    TMP DP  RH WIND       PRES   REMARKS
WAUSAU         CLOUDY    63  47  55 W17G25    30.07S
MOSINEE        CLOUDY    61  48  63 SW9       30.09F
MARSHFIELD     CLOUDY    62  47  57 W16       30.09S
STEVENS POINT  CLOUDY    61  44  54 SW16      30.10S
WAUPACA        MOSUNNY   67  45  44 SW14G20   30.10F
WAUTOMA        NOT AVBL
WISC RAPIDS    LGT RAIN  64  46  52 W13G23    30.11F
CAMP DOUGLAS   NOT AVBL
$$

WIZ011>013-019>022-031-037>040-048>050-142100-
NORTHEAST WISCONSIN

CITY           SKY/WX    TMP DP  RH WIND       PRES   REMARKS
ANTIGO         CLOUDY    59  47  64 SW16G22   30.07F
STURGEON BAY   SUNNY     63  43  48 S18G28    30.11F
GREEN BAY      MOSUNNY   64  46  52 SW18G24   30.11F
MANITOWOC      NOT AVBL
APPLETON       MOSUNNY   64  43  45 SW17G24   30.12F
CLINTONVILLE   PTSUNNY   64  43  45 SW15G22   30.09F
OSHKOSH        SUNNY     64  45  49 SW12G25   30.12F
$$

WIZ032>034-041-042-053>061-142100-
SOUTHWEST WISCONSIN

CITY           SKY/WX    TMP DP  RH WIND       PRES   REMARKS
LA CROSSE      CLOUDY    71  47  42 SW15G26   30.10F
SPARTA         PTSUNNY   67  45  45 SW10G16   30.12F
VIROQUA        FAIR      66  47  49 SW12G18   30.14F
BOSCOBEL       MOSUNNY   69  46  43 W12G23    30.15F
PRAIRIE DU CHI MOSUNNY   66  43  43 SW8       30.15F
PLATTEVILLE    FAIR      64  46  51 S10G20    30.19F
$$

WIZ056-057-062-063-064-067-068-142100-
SOUTH CENTRAL WISCONSIN

CITY           SKY/WX    TMP DP  RH WIND       PRES   REMARKS
BARABOO/DELLS  MOSUNNY   65  43  43 SW15G23   30.14F
LONE ROCK      NOT AVBL
WATERTOWN      MOSUNNY   64  45  50 SW13G23   30.17F
MADISON        MOSUNNY   65  44  46 SW9G18    30.16F
MIDDLETON      FAIR      66  44  44 SW14      30.17F
MONROE         MOSUNNY   64  45  48 SW10G17   30.19F
JANESVILLE     PTSUNNY   66  43  42 W12G17    30.18F
$$

WIZ051-052-058>065-066-070>072-142100-
SOUTHEAST WISCONSIN

CITY           SKY/WX    TMP DP  RH WIND       PRES   REMARKS
MILWAUKEE      MOSUNNY   63  42  46 SW13G20   30.19F
WAUKESHA       MOSUNNY   61  43  51 SW12G23   30.19F
MILWAUKEE/TIMM NOT AVBL
RACINE         MOSUNNY   63  44  50 S10       30.21F
BURLINGTON     SUNNY     62  43  49 S9        30.20F
KENOSHA        MOSUNNY   62  44  51 SW9       30.20F
FOND DU LAC    MOSUNNY   63  43  48 SW13G23   30.14F
SHEBOYGAN      MOSUNNY   64  43  46 SW18G25   30.15F
WEST BEND      MOSUNNY   61  39  44 SW12G17   30.17F
JUNEAU         MOSUNNY   62  44  51 SW14G20   30.17F
$$

LSZ147-162-142100-
LAKE SUPERIOR

STATION/POSITION TIME  TEMP    WIND        PRES    WAVE
                       AIR SEA DIR/SP/G            HT/PER
                 (UTC) (F)     (DEG/KT/KT) (MB)    (FT/S)
W MID LAKE BUOY  1850   51 47  230/ 14/ 17 1015.5S   4/ 6
DEVILS ISLAND    1900   54     250/ 14/ 17 1016.5R
PORT WING        1900   57     270/ 16/ 21 1017.3R
SAXON HARBOR     1900   63     240/ 10/ 20 1016.3
$$

LMZ867-665-643>646-142100-
LAKE MICHIGAN

STATION/POSITION TIME  TEMP    WIND        PRES    WAVE
                       AIR SEA DIR/SP/G            HT/PER
                 (UTC) (F)     (DEG/KT/KT) (MB)    (FT/S)
N MID LAKE BUOY  1850   56 58  210/ 21/ 27 1020.3F   6/ 5
NORTHPORT PIER   1920   59     160/ 13/ 21 1019.3F
KEWAUNEE LAKESHO 1900   60     210/ 10/ 16 1020.0F
SHEBOYGAN LAKESH 1900   59 51  210/ 11/ 15 1022.1F
PORT WASHINGTON  1900   64     220/  6/ 20 1022.4
MILWAUKEE LAKESH 1900   59     220/ 13/ 17   N/A
S MID LAKE BUOY  1850   57 65  220/ 12/ 16 1024.7F   2/ 3
KENOSHA   LAKESH 1900   60     230/  7/ 13 1023.0F
$$

TC  - TEMPERATURE IN CELSIUS
VSB - VISIBILITY IN STATUTE MILES
WCI - WIND CHILL INDEX
HX  - HEAT INDEX



USA.gov is the U.S. government's official web portal to all federal, state and local government web resources and services.